{"data":{"norad_id":58094,"intl_designator":"2023-160V","name":"STARLINK-30574","alt_names":[],"object_type":"PAYLOAD","status":"ACTIVE","operator":null,"country":"US","launch_date":"2023-10-18","launch_site_code":"AFETR","launch_vehicle":null,"mission":null,"orbit_class":"UNKNOWN","rcs_meters":null,"size_class":null,"mass_kg":null,"dimensions":null,"purposes":["comms"],"wikipedia_slug":null,"has_3d_model":false,"image_url":null,"decayed_at":null,"tle_current":{"epoch":"2026-09-20T17:01:07.316544Z","epoch_age_seconds":122442,"freshness":"FRESH","line1":"1 58094U 23160V   26263.70911246  .00000467  00000+0  26493-4 0  9991","line2":"2 58094  43.0014  56.3298 0001357 267.6899  92.3797 15.27579588162773","mean_motion":15.27579588,"eccentricity":0.0001357,"inclination_deg":43.0014,"raan_deg":56.3298,"arg_perigee_deg":267.6899,"mean_anomaly_deg":92.3797,"bstar":2.6493e-5,"rev_number":16277,"period_min":94.266774138121,"perigee_km":482.1192665955,"apogee_km":483.98139283679,"semimajor_km":6861.1873297161,"source":"CELESTRAK","updated_at":"2026-09-21T09:00:33.785226Z"}}}